Time,TemperatureF,DewpointF,PressureIn,WindDirection,WindDirectionDegrees,WindSpeedMPH,WindSpeedGustMPH,Humidity,HourlyPrecipIn,Conditions,Clouds,dailyrainin,SoftwareType,DateUTC
2013-03-22 09:22:00,18.0,12.0,29.87,North,355,5.0,8.0,76,0.00,,,0.00,,2013-03-22 14:22:00,
2013-03-22 09:32:00,18.0,12.0,29.87,NNW,345,7.0,11.0,76,0.00,,,0.00,,2013-03-22 14:32:00,
2013-03-22 09:42:00,18.0,12.0,29.87,NNW,345,7.0,11.0,76,0.00,,,0.00,,2013-03-22 14:42:00,
2013-03-22 09:52:00,19.0,13.0,29.87,NNW,341,7.0,11.0,76,0.00,,,0.00,,2013-03-22 14:52:00,
2013-03-22 10:03:00,19.0,13.0,29.87,NNW,336,6.0,10.0,76,0.00,,,0.00,,2013-03-22 15:03:00,
2013-03-22 10:12:00,19.0,13.0,29.87,NNW,336,6.0,10.0,76,0.00,,,0.00,,2013-03-22 15:12:00,
2013-03-22 10:22:00,19.0,12.0,29.87,NNW,342,6.0,10.0,75,0.00,,,0.00,,2013-03-22 15:22:00,
2013-03-22 10:32:00,21.0,14.0,29.87,North,349,6.0,12.0,74,0.00,,,0.00,,2013-03-22 15:32:00,
2013-03-22 10:42:00,21.0,14.0,29.87,North,349,6.0,12.0,74,0.00,,,0.00,,2013-03-22 15:42:00,
2013-03-22 10:52:00,22.0,15.0,29.87,North,352,6.0,13.0,74,0.00,,,0.00,,2013-03-22 15:52:00,
2013-03-22 11:02:00,24.0,16.0,29.88,North,351,5.0,10.0,70,0.00,,,0.00,,2013-03-22 16:02:00,
2013-03-22 11:13:00,24.0,16.0,29.88,NNW,348,8.0,13.0,70,0.00,,,0.00,,2013-03-22 16:13:00,
2013-03-22 11:22:00,24.0,16.0,29.88,NNW,348,8.0,13.0,70,0.00,,,0.00,,2013-03-22 16:22:00,
2013-03-22 11:32:00,24.0,16.0,29.88,NNW,348,8.0,13.0,70,0.00,,,0.00,,2013-03-22 16:32:00,
2013-03-22 11:42:00,24.0,16.0,29.88,NNW,348,8.0,13.0,70,0.00,,,0.00,,2013-03-22 16:42:00,
2013-03-22 11:52:00,24.0,16.0,29.88,NNW,348,8.0,13.0,70,0.00,,,0.00,,2013-03-22 16:52:00,
2013-03-22 12:03:00,28.0,18.0,29.87,North,1,6.0,8.0,66,0.00,,,0.00,,2013-03-22 17:03:00,
2013-03-22 12:12:00,28.0,18.0,29.87,North,3,6.0,12.0,66,0.00,,,0.00,,2013-03-22 17:12:00,
2013-03-22 12:23:00,28.0,18.0,29.87,North,3,6.0,12.0,66,0.00,,,0.00,,2013-03-22 17:23:00,
2013-03-22 12:32:00,30.0,20.0,29.86,North,351,7.0,12.0,65,0.00,,,0.00,,2013-03-22 17:32:00,
2013-03-22 12:42:00,30.0,20.0,29.86,North,351,7.0,12.0,65,0.00,,,0.00,,2013-03-22 17:42:00,
2013-03-22 12:52:00,30.0,19.0,29.86,North,356,7.0,12.0,64,0.00,,,0.00,,2013-03-22 17:52:00,
2013-03-22 13:02:00,30.0,18.0,29.86,NNW,347,8.0,12.0,61,0.00,,,0.00,,2013-03-22 18:02:00,
2013-03-22 13:12:00,30.0,18.0,29.86,NNW,347,8.0,12.0,61,0.00,,,0.00,,2013-03-22 18:12:00,
2013-03-22 13:22:00,30.0,18.0,29.86,North,353,6.0,11.0,61,0.00,,,0.00,,2013-03-22 18:22:00,
2013-03-22 13:33:00,31.0,19.0,29.87,North,355,6.0,10.0,60,0.00,,,0.00,,2013-03-22 18:33:00,
2013-03-22 13:42:00,31.0,19.0,29.87,North,355,6.0,10.0,60,0.00,,,0.00,,2013-03-22 18:42:00,
2013-03-22 13:52:00,31.0,18.0,29.87,North,349,6.0,11.0,59,0.00,,,0.00,,2013-03-22 18:52:00,
2013-03-22 14:02:00,32.0,20.0,29.87,NNW,339,7.0,11.0,61,0.00,,,0.00,,2013-03-22 19:02:00,
2013-03-22 14:12:00,32.0,20.0,29.87,NNW,339,7.0,11.0,61,0.00,,,0.00,,2013-03-22 19:12:00,
2013-03-22 14:22:00,31.0,20.0,29.87,NNW,339,8.0,12.0,62,0.00,,,0.00,,2013-03-22 19:22:00,
2013-03-22 14:32:00,31.0,20.0,29.87,NNW,337,7.0,11.0,63,0.00,,,0.00,,2013-03-22 19:32:00,
2013-03-22 14:42:00,31.0,20.0,29.87,NNW,337,7.0,11.0,63,0.00,,,0.00,,2013-03-22 19:42:00,
2013-03-22 14:52:00,32.0,21.0,29.87,NNW,346,7.0,13.0,63,0.00,,,0.00,,2013-03-22 19:52:00,
2013-03-22 15:02:00,32.0,20.0,29.87,NNW,327,6.0,10.0,60,0.00,,,0.00,,2013-03-22 20:02:00,
2013-03-22 15:12:00,32.0,20.0,29.87,NNW,327,6.0,10.0,60,0.00,,,0.00,,2013-03-22 20:12:00,
2013-03-22 15:22:00,32.0,20.0,29.86,NNW,341,6.0,11.0,62,0.00,,,0.00,,2013-03-22 20:22:00,
2013-03-22 15:32:00,32.0,20.0,29.86,NNW,341,6.0,11.0,62,0.00,,,0.00,,2013-03-22 20:32:00,
2013-03-22 15:42:00,32.0,20.0,29.86,NNW,341,6.0,11.0,62,0.00,,,0.00,,2013-03-22 20:42:00,
2013-03-22 15:52:00,33.0,21.0,29.85,NNW,339,6.0,12.0,61,0.00,,,0.00,,2013-03-22 20:52:00,
2013-03-22 16:03:00,33.0,20.0,29.85,North,349,6.0,11.0,58,0.00,,,0.00,,2013-03-22 21:03:00,
2013-03-22 16:12:00,33.0,20.0,29.85,North,5,5.0,12.0,58,0.00,,,0.00,,2013-03-22 21:12:00,
2013-03-22 16:22:00,33.0,20.0,29.85,North,5,5.0,12.0,58,0.00,,,0.00,,2013-03-22 21:22:00,
2013-03-22 16:32:00,33.0,20.0,29.86,NNW,348,4.0,8.0,58,0.00,,,0.00,,2013-03-22 21:32:00,
2013-03-22 16:42:00,33.0,20.0,29.86,NNW,348,4.0,8.0,58,0.00,,,0.00,,2013-03-22 21:42:00,
2013-03-22 16:52:00,33.0,20.0,29.86,North,357,4.0,8.0,58,0.00,,,0.00,,2013-03-22 21:52:00,
2013-03-22 17:03:00,33.0,21.0,29.85,North,1,3.0,7.0,60,0.00,,,0.00,,2013-03-22 22:03:00,
2013-03-22 17:12:00,33.0,21.0,29.85,North,1,3.0,7.0,60,0.00,,,0.00,,2013-03-22 22:12:00,
2013-03-22 17:23:00,33.0,20.0,29.86,NNW,341,4.0,10.0,59,0.00,,,0.00,,2013-03-22 22:23:00,
2013-03-22 17:32:00,33.0,20.0,29.86,North,351,4.0,10.0,58,0.00,,,0.00,,2013-03-22 22:32:00,
2013-03-22 17:42:00,33.0,20.0,29.86,North,351,4.0,10.0,58,0.00,,,0.00,,2013-03-22 22:42:00,
2013-03-22 17:53:00,33.0,19.0,29.86,North,358,4.0,8.0,57,0.00,,,0.00,,2013-03-22 22:53:00,
2013-03-22 18:02:00,33.0,19.0,29.86,North,358,4.0,8.0,57,0.00,,,0.00,,2013-03-22 23:02:00,
2013-03-22 18:12:00,33.0,19.0,29.86,North,358,4.0,8.0,57,0.00,,,0.00,,2013-03-22 23:12:00,
2013-03-22 18:22:00,33.0,19.0,29.86,North,358,4.0,8.0,57,0.00,,,0.00,,2013-03-22 23:22:00,
2013-03-22 18:32:00,33.0,20.0,29.88,NNW,346,4.0,10.0,59,0.00,,,0.00,,2013-03-22 23:32:00,
2013-03-22 18:42:00,33.0,20.0,29.88,NNW,346,4.0,10.0,59,0.00,,,0.00,,2013-03-22 23:42:00,
2013-03-22 18:52:00,32.0,20.0,29.88,NNW,340,4.0,7.0,61,0.00,,,0.00,,2013-03-22 23:52:00,
2013-03-22 19:02:00,32.0,20.0,29.88,NNW,336,2.0,5.0,60,0.00,,,0.00,,2013-03-23 00:02:00,
2013-03-22 19:12:00,32.0,20.0,29.88,NNW,336,2.0,5.0,60,0.00,,,0.00,,2013-03-23 00:12:00,
2013-03-22 19:23:00,32.0,20.0,29.88,NNW,335,2.0,3.0,60,0.00,,,0.00,,2013-03-23 00:23:00,
2013-03-22 19:32:00,32.0,20.0,29.89,WNW,302,2.0,6.0,61,0.00,,,0.00,,2013-03-23 00:32:00,
2013-03-22 19:42:00,32.0,20.0,29.89,WNW,302,2.0,6.0,61,0.00,,,0.00,,2013-03-23 00:42:00,
2013-03-22 19:52:00,32.0,20.0,29.89,WNW,302,2.0,6.0,61,0.00,,,0.00,,2013-03-23 00:52:00,
2013-03-22 20:03:00,32.0,20.0,29.89,WNW,302,2.0,6.0,61,0.00,,,0.00,,2013-03-23 01:03:00,
2013-03-22 20:12:00,32.0,20.0,29.89,WNW,302,2.0,6.0,61,0.00,,,0.00,,2013-03-23 01:12:00,
2013-03-22 20:22:00,32.0,20.0,29.90,NW,313,0.0,2.0,62,0.00,,,0.00,,2013-03-23 01:22:00,
2013-03-22 20:32:00,32.0,21.0,29.90,NW,313,0.0,2.0,63,0.00,,,0.00,,2013-03-23 01:32:00,
2013-03-22 20:43:00,32.0,21.0,29.90,NW,313,0.0,2.0,63,0.00,,,0.00,,2013-03-23 01:43:00,
2013-03-22 20:52:00,32.0,20.0,29.90,NW,312,0.0,2.0,61,0.00,,,0.00,,2013-03-23 01:52:00,
2013-03-22 21:02:00,32.0,20.0,29.90,North,0,0.0,0.0,61,0.00,,,0.00,,2013-03-23 02:02:00,
2013-03-22 21:12:00,32.0,20.0,29.90,North,0,0.0,0.0,61,0.00,,,0.00,,2013-03-23 02:12:00,
2013-03-22 21:22:00,32.0,20.0,29.90,North,0,0.0,0.0,61,0.00,,,0.00,,2013-03-23 02:22:00,
2013-03-22 21:32:00,32.0,20.0,29.90,North,0,0.0,0.0,61,0.00,,,0.00,,2013-03-23 02:32:00,